Location: Dehesa de la Cepeda
(40.6574°N, 4.3013°W)
Time: 19:58:06
(UTC+00:00)

IRIDIUM 103 - Pass Details

Date: 05 July 2020
Orbit: 776 x 779 km, 86.4° (Epoch: 05 August)

Event Time Altitude Azimuth Distance (km) Brightness Sun altitude
Exits shadow 23:41:41 66° 97° (E) 851 4.3 -26.0°
Maximum altitude 23:41:47 66° 89° (E) 850 4.4 -26.0°
Drops below altitude 10° 23:46:58 10° 8° (N) 2,339 7.7 -26.2°
Sets 23:49:20 0° 6° (N) 3,271 8.8 -26.2°
